Weather History for Novato, CA

Change the Weather History Date:

Sunday, June 16, 2013

  Actual Average (KAPC) Record (KAPC)
Temperature  
Mean Temperature 63 °F 64 °F  
Max Temperature 80 °F 79 °F 98 °F (2012)
Min Temperature 46 °F 50 °F 38 °F (2002)
Degree Days  
Heating Degree Days 2    
Month to date heating degree days  
Since 1 June heating degree days  
Since 1 July heating degree days  
Cooling Degree Days 0    
Month to date cooling degree days  
Year to date cooling degree days  
Since 1 June cooling degree days  
Growing Degree Days 13 (Base 50)    
Moisture  
Dew Point 48 °F    
Average Humidity 64    
Maximum Humidity 100    
Minimum Humidity 32    
Precipitation  
Precipitation 0.00 in - 0.53 in (1937)
Month to date precipitation  
Year to date precipitation  
Since 1 July precipitation  
Sea Level Pressure  
Sea Level Pressure 30.04 in    
Wind  
Wind Speed 5 mph (WNW)    
Max Wind Speed 26 mph    
Max Gust Speed 38 mph    
Visibility 10 miles    
Events      
T = Trace of Precipitation, MM = Missing Value Source: NWS Daily Summary

Daily Weather History Graph

Daily Weather History Graph

Search for Another Location

Airport:

Trip Planner

Search our weather history database for the weather conditions in past years. The results will help you decide how hot, cold, wet, or windy it might be!

Date:

Astronomy

Jun. 16, 2013 Rise Set
Actual Time 5:46 AM PDT 8:35 PM PDT
Civil Twilight 5:15 AM PDT 9:06 PM PDT
Nautical Twilight 4:35 AM PDT 9:46 PM PDT
Astronomical Twilight 3:50 AM PDT 10:31 PM PDT
Moon 1:21 PM PDT (6/16) 12:48 AM PDT (6/16)
Length of Visible Light 15h 51m
Length of Day
14h 48m
Waxing Crescent, 51% of the Moon is Illuminated
Jun 16
Waxing Crescent
Jun 23
Full
Jun 29
Last Quarter
Jul 8
New
Jul 15
First Quarter

Hourly Weather History & Observations

Time (PDT) Temp. Dew Point Humidity Pressure Visibility Wind Dir Wind Speed Gust Speed Precip Events Conditions
12:15 AM 50.0 °F 50.0 °F 100% 30.00 in 10.0 mi Calm Calm - N/A   Clear
12:35 AM 48.2 °F 48.2 °F 100% 30.00 in 10.0 mi Calm Calm - N/A   Clear
12:55 AM 48.2 °F 48.2 °F 100% 30.00 in 10.0 mi NNW 6.9 mph - N/A   Clear
1:15 AM 48.2 °F 48.2 °F 100% 30.00 in 10.0 mi NNW 5.8 mph - N/A   Clear
1:35 AM 48.2 °F 48.2 °F 100% 30.00 in 10.0 mi NNW 4.6 mph - N/A   Clear
1:55 AM 50.0 °F 50.0 °F 100% 30.00 in 10.0 mi NW 3.5 mph - N/A   Clear
2:15 AM 48.2 °F 48.2 °F 100% 30.00 in 10.0 mi Calm Calm - N/A   Clear
2:35 AM 48.2 °F 48.2 °F 100% 30.00 in 10.0 mi Calm Calm - N/A   Clear
2:55 AM 50.0 °F 50.0 °F 100% 30.00 in 10.0 mi Calm Calm - N/A   Clear
3:15 AM 50.0 °F 50.0 °F 100% 30.00 in 10.0 mi Calm Calm - N/A   Clear
3:35 AM 48.2 °F 48.2 °F 100% 30.00 in 10.0 mi Calm Calm - N/A   Clear
3:55 AM 48.2 °F 48.2 °F 100% 30.01 in 10.0 mi Calm Calm - N/A   Clear
4:15 AM 48.2 °F 48.2 °F 100% 30.01 in 10.0 mi Calm Calm - N/A   Clear
4:35 AM 48.2 °F 48.2 °F 100% 30.01 in 10.0 mi Calm Calm - N/A   Clear
4:55 AM 46.4 °F 46.4 °F 100% 30.01 in 10.0 mi Calm Calm - N/A   Clear
5:15 AM 46.4 °F 46.4 °F 100% 30.02 in 10.0 mi Calm Calm - N/A   Clear
5:35 AM 48.2 °F 48.2 °F 100% 30.03 in 10.0 mi Calm Calm - N/A   Clear
5:55 AM 46.4 °F 46.4 °F 100% 30.03 in 10.0 mi Calm Calm - N/A   Clear
6:15 AM 48.2 °F 48.2 °F 100% 30.04 in 10.0 mi Calm Calm - N/A   Clear
6:35 AM 46.4 °F 46.4 °F 100% 30.04 in 10.0 mi Calm Calm - N/A   Clear
6:55 AM 50.0 °F 50.0 °F 100% 30.05 in 10.0 mi Calm Calm - N/A   Clear
7:15 AM 50.0 °F 50.0 °F 100% 30.05 in 10.0 mi Calm Calm - N/A   Clear
7:35 AM 51.8 °F 50.0 °F 94% 30.05 in 10.0 mi North 3.5 mph - N/A   Clear
7:55 AM 53.6 °F 50.0 °F 88% 30.06 in 10.0 mi Calm Calm - N/A   Clear
8:15 AM 55.4 °F 50.0 °F 82% 30.06 in 10.0 mi Calm Calm - N/A   Clear
8:35 AM 57.2 °F 50.0 °F 77% 30.07 in 10.0 mi Calm Calm - N/A   Clear
8:55 AM 59.0 °F 50.0 °F 72% 30.07 in 10.0 mi Calm Calm - N/A   Clear
9:15 AM 60.8 °F 50.0 °F 68% 30.08 in 10.0 mi Calm Calm - N/A   Clear
9:35 AM 64.4 °F 50.0 °F 59% 30.07 in 10.0 mi Calm Calm - N/A   Clear
9:55 AM 64.4 °F 50.0 °F 59% 30.07 in 10.0 mi Calm Calm - N/A   Clear
10:15 AM 66.2 °F 48.2 °F 52% 30.07 in 5.0 mi SW 3.5 mph - N/A   Haze
10:35 AM 68.0 °F 48.2 °F 49% 30.07 in 10.0 mi SSW 4.6 mph - N/A   Clear
10:55 AM 71.6 °F 48.2 °F 43% 30.06 in 10.0 mi South 4.6 mph - N/A   Clear
11:15 AM 73.4 °F 48.2 °F 41% 30.07 in 10.0 mi South 4.6 mph - N/A   Clear
11:35 AM 77.0 °F 48.2 °F 36% 30.06 in 10.0 mi North 11.5 mph - N/A   Clear
11:55 AM 77.0 °F 46.4 °F 34% 30.06 in 10.0 mi NW 8.1 mph - N/A   Clear
12:15 PM 77.0 °F 46.4 °F 34% 30.07 in 10.0 mi NNW 8.1 mph - N/A   Clear
12:35 PM 78.8 °F 46.4 °F 32% 30.06 in 10.0 mi NW 9.2 mph - N/A   Clear
12:55 PM 80.6 °F 48.2 °F 32% 30.06 in 10.0 mi WNW 5.8 mph - N/A   Clear
1:15 PM 80.6 °F 48.2 °F 32% 30.05 in 10.0 mi WSW 15.0 mph - N/A   Clear
1:35 PM 80.6 °F 48.2 °F 32% 30.05 in 10.0 mi WSW 16.1 mph 23.0 mph N/A   Clear
1:55 PM 80.6 °F 50.0 °F 34% 30.05 in 10.0 mi WSW 13.8 mph 18.4 mph N/A   Clear
2:15 PM 80.6 °F 50.0 °F 34% 30.06 in 10.0 mi WSW 13.8 mph 18.4 mph N/A   Clear
2:35 PM 78.8 °F 50.0 °F 36% 30.05 in 10.0 mi West 10.4 mph 17.3 mph N/A   Clear
2:55 PM 78.8 °F 48.2 °F 34% 30.05 in 10.0 mi WSW 9.2 mph 17.3 mph N/A   Clear
3:15 PM 80.6 °F 48.2 °F 32% 30.04 in 10.0 mi West 16.1 mph 19.6 mph N/A   Clear
3:35 PM 80.6 °F 48.2 °F 32% 30.04 in 10.0 mi West 19.6 mph 25.3 mph N/A   Clear
3:55 PM 78.8 °F 48.2 °F 34% 30.03 in 10.0 mi West 18.4 mph 26.5 mph N/A   Clear
4:15 PM 78.8 °F 48.2 °F 34% 30.03 in 10.0 mi West 20.7 mph 27.6 mph N/A   Clear
4:35 PM 77.0 °F 48.2 °F 36% 30.03 in 10.0 mi West 20.7 mph 33.4 mph N/A   Clear
4:55 PM 77.0 °F 48.2 °F 36% 30.03 in 10.0 mi West 21.9 mph 32.2 mph N/A   Clear
5:15 PM 77.0 °F 48.2 °F 36% 30.03 in 10.0 mi West 23.0 mph 28.8 mph N/A   Clear
5:35 PM 75.2 °F 46.4 °F 36% 30.02 in 10.0 mi West 25.3 mph 34.5 mph N/A   Clear
5:55 PM 75.2 °F 46.4 °F 36% 30.02 in 10.0 mi West 25.3 mph 38.0 mph N/A   Clear
6:15 PM 75.2 °F 44.6 °F 34% 30.03 in 10.0 mi WNW 13.8 mph 31.1 mph N/A   Clear
6:35 PM 75.2 °F 46.4 °F 36% 30.02 in 10.0 mi WNW 23.0 mph 33.4 mph N/A   Clear
6:55 PM 75.2 °F 44.6 °F 34% 30.02 in 10.0 mi West 24.2 mph 35.7 mph N/A   Clear
7:15 PM 75.2 °F 44.6 °F 34% 30.02 in 10.0 mi West 26.5 mph 33.4 mph N/A   Clear
7:35 PM 73.4 °F 44.6 °F 36% 30.02 in 10.0 mi West 20.7 mph 31.1 mph N/A   Clear
7:55 PM 73.4 °F 44.6 °F 36% 30.03 in 10.0 mi West 17.3 mph 25.3 mph N/A   Clear
8:15 PM 68.0 °F 46.4 °F 46% 30.05 in 10.0 mi NNE 5.8 mph - N/A   Clear
8:35 PM 66.2 °F 46.4 °F 49% 30.05 in 10.0 mi SE 6.9 mph - N/A   Clear
8:55 PM 64.4 °F 46.4 °F 52% 30.06 in 10.0 mi SE 8.1 mph - N/A   Clear
9:15 PM 64.4 °F 46.4 °F 52% 30.06 in 10.0 mi ESE 5.8 mph - N/A   Clear
9:35 PM 64.4 °F 46.4 °F 52% 30.06 in 10.0 mi SE 6.9 mph - N/A   Clear
9:55 PM 62.6 °F 48.2 °F 59% 30.07 in 10.0 mi Calm Calm - N/A   Clear
10:15 PM 57.2 °F 48.2 °F 72% 30.07 in 10.0 mi NE 6.9 mph - N/A   Clear
10:35 PM 57.2 °F 48.2 °F 72% 30.07 in 10.0 mi North 8.1 mph - N/A   Clear
10:55 PM 57.2 °F 48.2 °F 72% 30.08 in 10.0 mi North 4.6 mph - N/A   Clear
11:15 PM 57.2 °F 48.2 °F 72% 30.08 in 10.0 mi North 3.5 mph - N/A   Clear
11:35 PM 55.4 °F 48.2 °F 77% 30.08 in 10.0 mi North 3.5 mph - N/A   Unknown
11:55 PM 53.6 °F 48.2 °F 82% 30.08 in 10.0 mi NNW 3.5 mph - N/A   Unknown